Time[GMT],current_speed[m/s](2m),current_direction[angular_degrees](2m),current_u[cm/s](2m),current_v[cm/s](2m)
2001-07-12 12:00,0.14000,202.8,-0.05,-0.13
2001-07-12 13:00,0.25000,264.8,-0.25,-0.02
2001-07-12 14:00,0.93000,214.8,-0.53,-0.76
2001-07-12 15:00,0.47000,144.8,0.27,-0.38
2001-07-12 20:00,1.27000,235.8,-1.05,-0.71
2001-07-12 21:00,0.72000,338.8,-0.26,0.67
2001-07-12 22:00,0.50000,204.8,-0.21,-0.45
2001-07-12 23:00,1.37000,187.8,-0.19,-1.36
2001-07-13 00:00,0.29000,98.8,0.29,-0.04
2001-07-13 01:00,0.76000,44.8,0.54,0.54
2001-07-13 02:00,0.84000,85.8,0.84,0.06
2001-07-13 03:00,0.79000,18.8,0.25,0.75
2001-07-13 04:00,0.91000,20.8,0.32,0.85
2001-07-13 05:00,0.50000,198.8,-0.16,-0.47
2001-07-13 06:00,1.02000,236.8,-0.85,-0.56
2001-07-13 07:00,0.47000,48.8,0.35,0.31
2001-07-13 08:00,0.51000,148.8,0.26,-0.44
2001-07-13 09:00,1.00000,43.8,0.69,0.72
2001-07-13 10:00,0.76000,302.8,-0.64,0.41
2001-07-13 11:00,0.28000,172.8,0.04,-0.28
2001-07-13 12:00,0.58000,140.8,0.37,-0.45
2001-07-13 13:00,0.66000,107.8,0.63,-0.20
2001-07-13 14:00,0.59000,359.8,-0.00,0.59
2001-07-13 15:00,0.19000,107.8,0.18,-0.06
2001-07-13 16:00,0.59000,355.8,-0.04,0.59
2001-07-13 17:00,0.52000,204.8,-0.22,-0.47
2001-07-13 18:00,0.15000,9.8,0.03,0.15
2001-07-13 19:00,0.50000,135.8,0.35,-0.36
2001-07-13 20:00,0.72000,207.8,-0.34,-0.64
2001-07-13 21:00,0.41000,301.8,-0.35,0.22
2001-07-13 22:00,1.32000,44.8,0.93,0.94
2001-07-13 23:00,0.34000,50.8,0.26,0.21
2001-07-14 00:00,0.27000,23.8,0.11,0.25
2001-07-14 01:00,0.10000,38.8,0.06,0.08
2001-07-14 02:00,0.96000,193.8,-0.23,-0.93
2001-07-14 03:00,0.87000,249.8,-0.82,-0.30
2001-07-14 04:00,1.58000,149.8,0.79,-1.37
2001-07-14 05:00,0.75000,266.8,-0.75,-0.04
2001-07-14 06:00,1.92000,35.8,1.12,1.56
2001-07-14 07:00,0.64000,61.8,0.56,0.30
2001-07-14 08:00,0.96000,208.8,-0.46,-0.84
2001-07-14 09:00,1.48000,194.8,-0.38,-1.43
2001-07-14 10:00,1.22000,154.8,0.52,-1.10
2001-07-14 11:00,0.46000,195.8,-0.13,-0.44
2001-07-14 12:00,0.25000,151.8,0.12,-0.22
2001-07-14 13:00,0.66000,86.8,0.66,0.04
2001-07-14 14:00,1.12000,20.8,0.40,1.05
2001-07-14 15:00,1.25000,167.8,0.26,-1.22
2001-07-14 16:00,0.47000,248.8,-0.44,-0.17
2001-07-14 17:00,0.82000,8.8,0.13,0.81
2001-07-14 18:00,1.37000,61.8,1.21,0.65
2001-07-14 19:00,0.85000,358.8,-0.02,0.85
2001-07-14 20:00,1.29000,68.8,1.20,0.47
2001-07-14 21:00,0.83000,111.8,0.77,-0.31
2001-07-14 22:00,0.48000,242.8,-0.43,-0.22
2001-07-14 23:00,1.58000,161.8,0.49,-1.50
2001-07-15 00:00,0.40000,212.8,-0.22,-0.34
2001-07-15 01:00,0.81000,165.8,0.20,-0.79
2001-07-15 02:00,0.84000,338.8,-0.30,0.78
2001-07-15 03:00,0.21000,266.8,-0.21,-0.01
2001-07-15 04:00,0.52000,345.8,-0.13,0.50
2001-07-15 05:00,0.37000,184.8,-0.03,-0.37
2001-07-15 06:00,0.31000,174.8,0.03,-0.31
2001-07-15 07:00,0.61000,281.8,-0.60,0.12
2001-07-15 08:00,0.94000,79.8,0.93,0.17
2001-07-15 09:00,1.51000,130.8,1.14,-0.99
2001-07-15 10:00,1.53000,68.8,1.43,0.55
2001-07-15 11:00,0.17000,214.8,-0.10,-0.14
2001-07-15 12:00,0.47000,254.8,-0.45,-0.12
2001-07-15 13:00,0.80000,151.8,0.38,-0.71
2001-07-15 14:00,1.01000,4.8,0.08,1.01
2001-07-15 15:00,1.11000,108.8,1.05,-0.36
2001-07-15 16:00,1.09000,123.8,0.91,-0.61
2001-07-15 17:00,0.24000,305.8,-0.19,0.14
2001-07-15 18:00,0.94000,94.8,0.94,-0.08
2001-07-15 19:00,0.21000,165.8,0.05,-0.20
2001-07-15 20:00,0.86000,109.8,0.81,-0.29
2001-07-16 08:00,0.78000,106.8,0.75,-0.23
2001-07-16 14:00,0.94000,230.8,-0.73,-0.59
2001-07-16 15:00,1.33000,233.8,-1.07,-0.79
2001-07-16 16:00,0.80000,278.8,-0.79,0.12
2001-07-16 17:00,1.22000,1.8,0.04,1.22
2001-07-16 18:00,1.42000,46.8,1.04,0.97
2001-07-16 19:00,1.01000,105.8,0.97,-0.28
2001-07-16 20:00,1.34000,102.8,1.31,-0.30
2001-07-16 21:00,0.95000,41.8,0.63,0.71
2001-07-16 22:00,1.04000,49.8,0.79,0.67
2001-07-16 23:00,0.69000,22.8,0.27,0.64
2001-07-17 00:00,0.38000,40.8,0.25,0.29
2001-07-17 01:00,0.59000,149.8,0.30,-0.51
2001-07-17 02:00,0.70000,309.8,-0.54,0.45
2001-07-17 03:00,0.53000,258.8,-0.52,-0.10
2001-07-17 04:00,0.78000,212.8,-0.42,-0.66
2001-07-17 05:00,0.49000,96.8,0.49,-0.06
2001-07-17 06:00,0.57000,348.8,-0.11,0.56
2001-07-17 07:00,0.64000,273.8,-0.64,0.04
2001-07-17 08:00,1.12000,20.8,0.40,1.05
2001-07-17 09:00,1.27000,43.8,0.88,0.92
2001-07-17 10:00,0.47000,158.8,0.17,-0.44
2001-07-17 11:00,1.05000,81.8,1.04,0.15
2001-07-17 12:00,0.25000,174.8,0.02,-0.25
2001-07-17 13:00,0.22000,247.8,-0.20,-0.08
2001-07-17 14:00,0.18000,271.8,-0.18,0.01
2001-07-17 15:00,0.29000,39.8,0.19,0.22
2001-07-17 16:00,0.35000,291.8,-0.32,0.13
2001-07-17 17:00,0.70000,5.8,0.07,0.70
2001-07-17 18:00,0.71000,20.8,0.25,0.66
2001-07-17 19:00,0.15000,17.8,0.05,0.14
2001-07-17 20:00,0.88000,243.8,-0.79,-0.39
2001-07-17 21:00,0.91000,232.8,-0.72,-0.55
2001-07-17 22:00,1.16000,193.8,-0.28,-1.13
2001-07-17 23:00,1.44000,242.8,-1.28,-0.66
2001-07-18 00:00,1.01000,187.8,-0.14,-1.00
2001-07-18 01:00,0.64000,211.8,-0.34,-0.54
2001-07-18 02:00,0.36000,34.8,0.21,0.30
2001-07-18 03:00,0.78000,221.8,-0.52,-0.58
2001-07-18 05:00,0.55000,113.8,0.50,-0.22
2001-07-18 06:00,0.26000,129.8,0.20,-0.17
2001-07-18 07:00,0.28000,327.8,-0.15,0.24
2001-07-18 08:00,0.56000,213.8,-0.31,-0.47
2001-07-18 09:00,0.70000,141.8,0.43,-0.55
2001-07-18 10:00,0.39000,38.8,0.24,0.30
2001-07-18 11:00,0.80000,93.8,0.80,-0.05
2001-07-18 12:00,0.37000,208.8,-0.18,-0.32
2001-07-18 13:00,0.47000,219.8,-0.30,-0.36
2001-07-18 14:00,1.41000,248.8,-1.31,-0.51
2001-07-18 15:00,1.26000,296.8,-1.12,0.57
2001-07-18 16:00,0.75000,267.8,-0.75,-0.03
2001-07-18 17:00,0.74000,104.8,0.72,-0.19
2001-07-18 18:00,0.76000,235.8,-0.63,-0.43
2001-07-18 19:00,1.03000,14.8,0.26,1.00
2001-07-18 20:00,1.45000,39.8,0.93,1.11
2001-07-18 21:00,0.43995,21.9,0.16,0.41
2001-07-18 22:00,0.36369,28.6,0.17,0.32
2001-07-18 23:00,0.32263,35.6,0.19,0.26
2001-07-19 00:00,0.23464,13.8,0.06,0.23
2001-07-19 01:00,0.08799,49.7,0.07,0.06
2001-07-19 02:00,0.26984,160.4,0.09,-0.25
2001-07-19 03:00,0.26104,194.9,-0.07,-0.25
2001-07-19 04:00,0.36076,181.2,-0.01,-0.36
2001-07-19 05:00,0.36956,176.9,0.02,-0.37
2001-07-19 06:00,0.21704,186.4,-0.02,-0.22
2001-07-19 07:00,0.19651,201.6,-0.07,-0.18
2001-07-19 08:00,0.13785,286.3,-0.13,0.04
2001-07-19 09:00,0.24344,341.8,-0.08,0.23
2001-07-19 10:00,0.32850,352.3,-0.04,0.33
2001-07-19 11:00,0.31090,349.5,-0.06,0.31
2001-07-19 12:00,0.36369,347.4,-0.08,0.35
2001-07-19 13:00,0.38716,349.2,-0.07,0.38
2001-07-19 14:00,0.23171,27.5,0.11,0.21
2001-07-19 15:00,0.10266,152.7,0.05,-0.09
2001-07-19 16:00,0.20531,161.5,0.07,-0.19
2001-07-19 17:00,0.29330,172.4,0.04,-0.29
2001-07-19 18:00,0.09092,188.2,-0.01,-0.09
2001-07-19 19:00,0.17305,147.1,0.09,-0.15
2001-07-19 20:00,0.02640,43.7,0.02,0.02
2001-07-19 21:00,0.03813,318.3,-0.03,0.03
2001-07-19 22:00,0.26984,339.7,-0.09,0.25
2001-07-19 23:00,0.19358,349.2,-0.04,0.19
2001-07-20 00:00,0.24637,344.6,-0.07,0.24
2001-07-20 01:00,0.38716,352.7,-0.05,0.38
2001-07-20 02:00,0.29917,354.8,-0.03,0.30
2001-07-20 03:00,0.08799,356.9,-0.00,0.09
2001-07-20 04:00,0.12025,208.9,-0.06,-0.11
2001-07-20 05:00,0.17598,142.5,0.11,-0.14
2001-07-20 06:00,0.20531,147.4,0.11,-0.17
2001-07-20 07:00,0.19065,175.5,0.01,-0.19
2001-07-20 08:00,0.07333,41.6,0.05,0.05
2001-07-20 09:00,0.13785,6.8,0.02,0.14
2001-07-20 10:00,0.10559,12.4,0.02,0.10
2001-07-20 11:00,0.42822,358.0,-0.02,0.43
2001-07-20 12:00,0.39302,11.0,0.07,0.39
2001-07-20 13:00,0.33143,18.7,0.11,0.31
2001-07-20 14:00,0.36369,0.4,0.00,0.36
2001-07-20 15:00,0.10266,317.9,-0.07,0.08
2001-07-20 16:00,0.16132,240.6,-0.14,-0.08
2001-07-20 17:00,0.29037,168.9,0.06,-0.28
2001-07-20 18:00,0.28157,193.8,-0.07,-0.27
2001-07-20 19:00,0.11145,87.3,0.11,0.01
2001-07-20 20:00,0.10559,181.2,-0.00,-0.11
2001-07-20 21:00,0.09972,338.7,-0.04,0.09
2001-07-20 22:00,0.25810,24.7,0.11,0.23
2001-07-20 23:00,0.31383,17.7,0.10,0.30
2001-07-21 00:00,0.27277,17.3,0.08,0.26
2001-07-21 01:00,0.24930,5.4,0.02,0.25
2001-07-21 02:00,0.28450,3.2,0.02,0.28
2001-07-21 03:00,0.18185,41.2,0.12,0.14
2001-07-21 04:00,0.17305,116.8,0.15,-0.08
2001-07-21 06:00,0.30210,168.5,0.06,-0.30
2001-07-21 07:00,0.18185,149.9,0.09,-0.16
2001-07-21 08:00,0.45168,142.5,0.28,-0.36
2001-07-21 09:00,0.12612,134.7,0.09,-0.09
2001-07-21 10:00,0.11439,42.3,0.08,0.08
2001-07-21 11:00,0.23171,14.1,0.06,0.22
2001-07-21 12:00,0.30503,10.6,0.06,0.30
2001-07-21 13:00,0.26397,356.9,-0.01,0.26
2001-07-21 14:00,0.25224,350.9,-0.04,0.25
2001-07-21 15:00,0.31383,336.2,-0.13,0.29
2001-07-21 16:00,0.21411,351.6,-0.03,0.21
2001-07-21 17:00,0.18771,142.8,0.11,-0.15
2001-07-21 18:00,0.37249,145.6,0.21,-0.31
2001-07-21 19:00,0.25224,140.4,0.16,-0.19
2001-07-21 20:00,0.31383,86.6,0.31,0.02
2001-07-21 21:00,0.29330,134.7,0.21,-0.21
2001-07-21 22:00,0.18185,75.3,0.18,0.05
2001-07-21 23:00,0.19065,64.1,0.17,0.08
2001-07-22 00:00,0.32556,41.6,0.22,0.24
2001-07-22 01:00,0.29623,15.2,0.08,0.29
2001-07-22 02:00,0.10852,30.7,0.06,0.09
2001-07-22 03:00,0.17305,66.9,0.16,0.07
2001-07-22 04:00,0.20824,123.1,0.17,-0.11
2001-07-22 05:00,0.20824,129.5,0.16,-0.13
2001-07-22 06:00,0.33436,142.8,0.20,-0.27
2001-07-22 07:00,0.40769,125.3,0.33,-0.24
2001-07-22 08:00,0.45461,126.7,0.36,-0.27
2001-07-22 10:00,0.24344,123.1,0.20,-0.13
2001-07-22 11:00,0.14372,91.9,0.14,-0.00
2001-07-22 12:00,0.25517,8.9,0.04,0.25
2001-07-22 13:00,0.36956,25.8,0.16,0.33
2001-07-22 14:00,0.38129,23.6,0.15,0.35
2001-07-22 15:00,0.31970,22.9,0.12,0.29
2001-07-22 16:00,0.34903,5.4,0.03,0.35
2001-07-22 17:00,0.25224,72.5,0.24,0.08
2001-07-22 18:00,0.24930,104.9,0.24,-0.06
2001-07-22 19:00,0.28450,123.5,0.24,-0.16
2001-07-22 20:00,0.37249,129.5,0.29,-0.24
2001-07-22 21:00,0.40475,123.8,0.34,-0.23
2001-07-22 22:00,0.31970,124.5,0.26,-0.18
2001-07-22 23:00,0.29330,120.7,0.25,-0.15
2001-07-23 00:00,0.26104,59.9,0.23,0.13
2001-07-23 01:00,0.34023,56.3,0.28,0.19
2001-07-23 02:00,0.23171,38.4,0.14,0.18
2001-07-23 03:00,0.25517,20.8,0.09,0.24
2001-07-23 05:00,0.17305,110.5,0.16,-0.06
2001-07-23 06:00,0.23171,116.5,0.21,-0.10
2001-07-23 07:00,0.36076,132.6,0.27,-0.24
2001-07-23 08:00,0.41649,129.1,0.32,-0.26
2001-07-23 09:00,0.46048,130.2,0.35,-0.30
2001-07-23 10:00,0.48688,139.0,0.32,-0.37
2001-07-23 11:00,0.19065,78.8,0.19,0.04
2001-07-23 12:00,0.25810,55.6,0.21,0.15
2001-07-23 13:00,0.36076,53.2,0.29,0.22
2001-07-23 14:00,0.24051,43.7,0.17,0.17
2001-07-23 15:00,0.21118,38.4,0.13,0.17
2001-07-23 16:00,0.20531,25.0,0.09,0.19
2001-07-23 17:00,0.23171,13.8,0.06,0.23
2001-07-23 18:00,0.18185,105.6,0.18,-0.05
2001-07-23 19:00,0.10559,246.2,-0.10,-0.04
2001-07-23 20:00,0.01173,297.5,-0.01,0.01
2001-07-23 21:00,0.25810,95.0,0.26,-0.02
2001-07-23 22:00,0.36369,111.9,0.34,-0.14
2001-07-23 23:00,0.27570,95.0,0.27,-0.02
2001-07-24 00:00,0.30796,59.9,0.27,0.15
2001-07-24 02:00,0.33143,37.4,0.20,0.26
2001-07-24 03:00,0.25224,28.6,0.12,0.22
2001-07-24 04:00,0.31970,40.5,0.21,0.24
2001-07-24 05:00,0.12025,17.3,0.04,0.11
2001-07-24 06:00,0.20824,134.4,0.15,-0.15
2001-07-24 07:00,0.12319,177.6,0.01,-0.12
2001-07-24 08:00,0.23171,105.9,0.22,-0.06
2001-07-24 09:00,0.26104,146.3,0.14,-0.22
2001-07-24 10:00,0.34023,97.5,0.34,-0.04
2001-07-24 11:00,0.35783,111.2,0.33,-0.13
2001-07-24 12:00,0.31970,92.6,0.32,-0.01
2001-07-24 13:00,0.25224,101.3,0.25,-0.05
2001-07-24 14:00,0.34023,46.5,0.25,0.23
2001-07-24 15:00,0.24344,39.1,0.15,0.19
2001-07-24 16:00,0.29623,49.3,0.22,0.19
2001-07-24 17:00,0.16425,43.7,0.11,0.12
2001-07-24 18:00,0.28157,2.2,0.01,0.28
2001-07-24 20:00,0.06746,138.3,0.04,-0.05
2001-07-24 21:00,0.11145,67.2,0.10,0.04
2001-07-24 23:00,0.30796,107.3,0.29,-0.09
2001-07-25 00:00,0.37249,97.1,0.37,-0.05
2001-07-25 01:00,0.36369,91.5,0.36,-0.01
2001-07-25 02:00,0.27277,50.4,0.21,0.17
2001-07-25 03:00,0.32850,38.4,0.20,0.26
2001-07-25 04:00,0.30796,51.8,0.24,0.19
2001-07-25 05:00,0.22291,76.0,0.22,0.05
2001-07-25 06:00,0.24930,35.2,0.14,0.20
2001-07-25 07:00,0.20824,123.5,0.17,-0.11
2001-07-25 08:00,0.43995,158.3,0.16,-0.41
2001-07-25 09:00,0.57780,163.2,0.17,-0.55
2001-07-25 10:00,0.56020,172.4,0.07,-0.56
2001-07-25 11:00,0.44582,171.7,0.06,-0.44
2001-07-25 12:00,0.38716,228.6,-0.29,-0.26
2001-07-25 13:00,0.19065,292.3,-0.18,0.07
2001-07-25 14:00,0.42235,339.4,-0.15,0.40
2001-07-25 15:00,0.43408,350.2,-0.07,0.43
2001-07-25 16:00,0.41062,349.5,-0.07,0.40
2001-07-25 17:00,0.46048,14.5,0.12,0.45
2001-07-25 18:00,0.50154,16.3,0.14,0.48
2001-07-25 19:00,0.34316,50.7,0.27,0.22
2001-07-25 20:00,0.15252,79.2,0.15,0.03
2001-07-25 21:00,0.32556,119.6,0.28,-0.16
2001-07-25 22:00,0.35489,135.1,0.25,-0.25
2001-07-25 23:00,0.42528,137.2,0.29,-0.31
2001-07-26 00:00,0.48981,136.2,0.34,-0.35
2001-07-26 01:00,0.37249,148.5,0.19,-0.32
2001-07-26 02:00,0.34023,193.8,-0.08,-0.33
2001-07-26 03:00,0.27570,249.0,-0.26,-0.10
2001-07-26 04:00,0.26104,315.8,-0.18,0.19
2001-07-26 05:00,0.26690,313.0,-0.20,0.18
2001-07-26 06:00,0.43115,322.1,-0.26,0.34
2001-07-26 07:00,0.54261,309.8,-0.42,0.35
2001-07-26 08:00,0.42822,329.2,-0.22,0.37
2001-07-26 09:00,0.12025,348.8,-0.02,0.12
2001-07-26 10:00,0.08212,141.8,0.05,-0.06
2001-07-26 11:00,0.05573,163.9,0.02,-0.05
2001-07-26 12:00,0.28157,129.1,0.22,-0.18
2001-07-26 13:00,0.25810,129.5,0.20,-0.16
2001-07-26 14:00,0.23464,147.8,0.13,-0.20
2001-07-26 15:00,0.07626,185.4,-0.01,-0.08
2001-07-26 16:00,0.08799,208.6,-0.04,-0.08
2001-07-26 17:00,0.23757,304.2,-0.20,0.13
2001-07-26 18:00,0.30796,308.4,-0.24,0.19
2001-07-26 19:00,0.40182,320.4,-0.26,0.31
2001-07-26 20:00,0.39009,329.2,-0.20,0.34
2001-07-26 21:00,0.10559,284.9,-0.10,0.03
2001-07-26 22:00,0.19065,216.3,-0.11,-0.15
2001-07-26 23:00,0.18478,200.5,-0.06,-0.17
2001-07-27 00:00,0.04106,220.5,-0.03,-0.03
2001-07-27 01:00,0.14372,55.3,0.12,0.08
2001-07-27 02:00,0.26104,52.1,0.21,0.16
2001-07-27 03:00,0.17598,103.1,0.17,-0.04
2001-07-27 04:00,0.18185,79.9,0.18,0.03
2001-07-27 06:00,0.17598,61.3,0.15,0.08
2001-07-27 07:00,0.05866,86.9,0.06,0.00
2001-07-27 08:00,0.26984,175.5,0.02,-0.27
2001-07-27 09:00,0.41355,194.2,-0.10,-0.40
2001-07-27 10:00,0.27863,216.7,-0.17,-0.22
2001-07-27 11:00,0.55727,214.6,-0.32,-0.46
2001-07-27 12:00,0.51621,201.2,-0.19,-0.48
2001-07-27 13:00,0.42235,217.0,-0.25,-0.34
2001-07-27 14:00,0.26984,264.1,-0.27,-0.03
2001-07-27 15:00,0.26984,342.5,-0.08,0.26
2001-07-27 16:00,0.28743,2.9,0.01,0.29
2001-07-27 17:00,0.46928,17.0,0.14,0.45
2001-07-27 18:00,0.40182,19.4,0.13,0.38
2001-07-27 19:00,0.37836,29.6,0.19,0.33
2001-07-27 20:00,0.29037,40.2,0.19,0.22
2001-07-27 21:00,0.39889,71.1,0.38,0.13
2001-07-27 22:00,0.36662,116.5,0.33,-0.16
2001-07-27 23:00,0.44875,127.7,0.35,-0.27
2001-07-28 00:00,0.64526,137.9,0.43,-0.48
2001-07-28 01:00,0.52794,155.5,0.22,-0.48
2001-07-28 02:00,0.59833,175.9,0.04,-0.60
2001-07-28 04:00,0.25517,233.9,-0.21,-0.15
2001-07-28 05:00,0.36662,314.8,-0.26,0.26
2001-07-28 06:00,0.48688,307.0,-0.39,0.29
2001-07-28 07:00,0.48688,339.0,-0.17,0.45
2001-07-28 08:00,0.32263,340.4,-0.11,0.30
2001-07-28 09:00,0.42235,7.5,0.05,0.42
2001-07-28 10:00,0.21411,34.9,0.12,0.18
2001-07-28 11:00,0.18185,85.9,0.18,0.01
2001-07-28 12:00,0.27570,128.4,0.22,-0.17
2001-07-28 13:00,0.36076,148.5,0.19,-0.31
2001-07-28 14:00,0.44288,148.8,0.23,-0.38
2001-07-28 15:00,0.33729,167.4,0.07,-0.33
2001-07-28 16:00,0.16132,182.6,-0.01,-0.16
2001-07-28 18:00,0.31383,334.5,-0.14,0.28
2001-07-28 19:00,0.23757,345.0,-0.06,0.23
2001-07-28 20:00,0.17305,5.7,0.02,0.17
2001-07-28 21:00,0.26397,351.6,-0.04,0.26
2001-07-28 22:00,0.19065,57.0,0.16,0.10
2001-07-28 23:00,0.24637,110.1,0.23,-0.08
2001-07-29 00:00,0.32556,127.7,0.26,-0.20
2001-07-29 01:00,0.27863,166.0,0.07,-0.27
2001-07-29 02:00,0.34023,166.7,0.08,-0.33
2001-07-29 03:00,0.24930,171.3,0.04,-0.25
2001-07-29 04:00,0.20824,181.9,-0.01,-0.21
2001-07-29 05:00,0.21118,356.6,-0.01,0.21
2001-07-29 06:00,0.24344,32.4,0.13,0.21
2001-07-29 07:00,0.31970,8.9,0.05,0.32
2001-07-29 08:00,0.27863,15.2,0.07,0.27
2001-07-29 09:00,0.21997,28.2,0.10,0.19
2001-07-29 10:00,0.16718,46.1,0.12,0.12
2001-07-29 11:00,0.20531,6.4,0.02,0.20
2001-07-29 12:00,0.18771,63.0,0.17,0.09
2001-07-29 13:00,0.42528,140.7,0.27,-0.33
2001-07-29 14:00,0.44875,147.8,0.24,-0.38
2001-07-29 17:00,0.26397,290.9,-0.25,0.09
2001-07-29 18:00,0.44288,339.4,-0.16,0.41
2001-07-29 19:00,0.36369,358.7,-0.01,0.36
2001-07-29 20:00,0.08799,32.4,0.05,0.07
2001-07-29 21:00,0.39302,20.1,0.14,0.37
2001-07-29 22:00,0.33143,48.6,0.25,0.22
2001-07-29 23:00,0.39302,29.6,0.19,0.34
2001-07-30 00:00,0.33436,67.2,0.31,0.13
2001-07-30 01:00,0.34316,87.3,0.34,0.02
2001-07-30 02:00,0.48688,121.0,0.42,-0.25
2001-07-30 03:00,0.47515,137.6,0.32,-0.35
2001-07-30 04:00,0.53381,162.9,0.16,-0.51
2001-07-30 05:00,0.31970,186.4,-0.04,-0.32
2001-07-30 06:00,0.17891,261.0,-0.18,-0.03
2001-07-30 07:00,0.21704,315.1,-0.15,0.15
2001-07-30 08:00,0.43115,16.6,0.12,0.41
2001-07-30 09:00,0.41062,27.9,0.19,0.36
2001-07-30 10:00,0.32263,52.1,0.25,0.20
2001-07-30 11:00,0.22291,98.9,0.22,-0.03
2001-07-30 12:00,0.19651,84.5,0.20,0.02
2001-07-30 13:00,0.11732,135.4,0.08,-0.08
2001-07-30 14:00,0.10852,71.5,0.10,0.03
2001-07-30 15:00,0.25810,112.9,0.24,-0.10
2001-07-30 16:00,0.44582,120.3,0.38,-0.23
2001-07-30 17:00,0.44582,142.1,0.27,-0.35
2001-07-30 18:00,0.09972,127.4,0.08,-0.06
2001-07-30 19:00,0.11145,53.9,0.09,0.07
2001-07-30 20:00,0.23171,50.4,0.18,0.15
2001-07-30 21:00,0.19065,91.9,0.19,-0.01
2001-07-30 22:00,0.26984,37.0,0.16,0.22
2001-07-30 23:00,0.23171,352.7,-0.03,0.23
2001-07-31 00:00,0.05866,63.7,0.05,0.03
2001-07-31 01:00,0.19065,74.3,0.18,0.05
2001-07-31 02:00,0.14078,96.1,0.14,-0.01
2001-07-31 03:00,0.34023,129.8,0.26,-0.22
2001-07-31 04:00,0.37836,134.7,0.27,-0.27
2001-07-31 06:00,0.23171,219.8,-0.15,-0.18
2001-07-31 07:00,0.13785,80.2,0.14,0.02
2001-07-31 08:00,0.29917,23.6,0.12,0.27
2001-07-31 09:00,0.29623,26.5,0.13,0.27
2001-07-31 10:00,0.36369,61.3,0.32,0.17
2001-07-31 11:00,0.24051,67.6,0.22,0.09
2001-07-31 12:00,0.27863,52.1,0.22,0.17
2001-07-31 13:00,0.18771,69.0,0.18,0.07
2001-07-31 14:00,0.13492,116.5,0.12,-0.06
2001-07-31 15:00,0.09386,123.8,0.08,-0.05
2001-07-31 16:00,0.22291,121.7,0.19,-0.12
2001-07-31 17:00,0.26984,137.6,0.18,-0.20
2001-07-31 18:00,0.24930,155.8,0.10,-0.23
2001-07-31 19:00,0.09092,129.8,0.07,-0.06
2001-07-31 20:00,0.07039,349.9,-0.01,0.07
2001-07-31 21:00,0.38129,357.6,-0.02,0.38
2001-07-31 22:00,0.31970,16.6,0.09,0.31
2001-07-31 23:00,0.17305,11.0,0.03,0.17
2001-08-01 00:00,0.12905,25.8,0.06,0.12
2001-08-01 01:00,0.03226,100.3,0.03,-0.01
2001-08-01 02:00,0.08212,184.3,-0.01,-0.08
2001-08-01 03:00,0.12905,161.1,0.04,-0.12
2001-08-01 04:00,0.04400,249.0,-0.04,-0.02
2001-08-01 07:00,0.02640,35.6,0.02,0.02
2001-08-01 08:00,0.14372,27.5,0.07,0.13
2001-08-01 09:00,0.14372,35.6,0.08,0.12
2001-08-01 10:00,0.28157,52.8,0.22,0.17
2001-08-01 11:00,0.41355,353.4,-0.05,0.41
2001-08-01 12:00,0.32850,343.2,-0.09,0.31
2001-08-01 13:00,0.22584,304.9,-0.19,0.13
2001-08-01 14:00,0.26690,26.5,0.12,0.24
2001-08-01 15:00,0.19944,354.8,-0.02,0.20
2001-08-01 16:00,0.15545,94.0,0.16,-0.01
2001-08-01 17:00,0.08212,250.4,-0.08,-0.03
2001-08-01 18:00,0.09386,165.7,0.02,-0.09
2001-08-01 19:00,0.15545,141.1,0.10,-0.12
2001-08-01 20:00,0.05573,110.1,0.05,-0.02
2001-08-01 21:00,0.15545,23.3,0.06,0.14
2001-08-01 22:00,0.29330,354.5,-0.03,0.29
2001-08-01 23:00,0.31676,24.3,0.13,0.29
2001-08-02 00:00,0.38129,20.1,0.13,0.36
2001-08-02 01:00,0.32263,49.3,0.24,0.21
2001-08-02 02:00,0.23464,74.3,0.23,0.06
2001-08-02 03:00,0.23757,82.4,0.24,0.03
2001-08-02 04:00,0.25810,115.4,0.23,-0.11
2001-08-02 05:00,0.29037,125.3,0.24,-0.17
2001-08-02 06:00,0.29623,143.9,0.17,-0.24
2001-08-02 07:00,0.42235,150.6,0.21,-0.37
2001-08-02 08:00,0.20824,146.0,0.12,-0.17
2001-08-02 09:00,0.11439,49.3,0.09,0.07
2001-08-02 10:00,0.18478,15.6,0.05,0.18
2001-08-02 11:00,0.28450,7.1,0.04,0.28
2001-08-02 12:00,0.41649,11.0,0.08,0.41
2001-08-02 13:00,0.35196,24.3,0.15,0.32
2001-08-02 14:00,0.29623,22.2,0.11,0.27
2001-08-02 15:00,0.27570,45.1,0.20,0.19
2001-08-02 16:00,0.28157,69.3,0.26,0.10
2001-08-02 17:00,0.33143,81.7,0.33,0.05
2001-08-02 18:00,0.46928,69.7,0.44,0.16
2001-08-02 19:00,0.54261,88.0,0.54,0.02
2001-08-02 20:00,0.47515,100.6,0.47,-0.09
2001-08-02 21:00,0.37836,102.0,0.37,-0.08
2001-08-02 22:00,0.31970,77.8,0.31,0.07
2001-08-02 23:00,0.24637,67.2,0.23,0.10
2001-08-03 00:00,0.20238,52.5,0.16,0.12
2001-08-03 01:00,0.23171,59.2,0.20,0.12
2001-08-03 02:00,0.13492,20.8,0.05,0.13
2001-08-03 03:00,0.29330,113.7,0.27,-0.12
2001-08-03 04:00,0.12905,75.3,0.12,0.03
2001-08-03 05:00,0.32850,101.0,0.32,-0.06
2001-08-03 06:00,0.38716,109.4,0.37,-0.13
2001-08-03 07:00,0.38422,111.9,0.36,-0.14
2001-08-03 08:00,0.27863,117.2,0.25,-0.13
2001-08-03 09:00,0.23464,68.3,0.22,0.09
2001-08-03 10:00,0.31090,61.6,0.27,0.15
2001-08-03 11:00,0.35783,50.0,0.27,0.23
2001-08-03 12:00,0.30796,54.6,0.25,0.18
2001-08-03 13:00,0.29330,47.9,0.22,0.20
2001-08-03 14:00,0.07333,306.3,-0.06,0.04
2001-08-03 15:00,0.10559,317.2,-0.07,0.08
2001-08-03 16:00,0.14372,244.4,-0.13,-0.06
2001-08-03 17:00,0.12612,147.4,0.07,-0.11
2001-08-03 18:00,0.28743,171.0,0.05,-0.28
2001-08-03 19:00,0.03226,173.8,0.00,-0.03
2001-08-03 20:00,0.08506,145.3,0.05,-0.07
2001-08-03 21:00,0.12319,103.8,0.12,-0.03
2001-08-03 22:00,0.10266,33.1,0.06,0.09
2001-08-03 23:00,0.25224,20.1,0.09,0.24
2001-08-04 00:00,0.42235,15.2,0.11,0.41
2001-08-04 01:00,0.32850,20.1,0.11,0.31
2001-08-04 02:00,0.24344,24.3,0.10,0.22
2001-08-04 03:00,0.09386,37.0,0.06,0.07
2001-08-04 04:00,0.04693,176.9,0.00,-0.05
2001-08-04 05:00,0.18478,193.1,-0.04,-0.18
2001-08-04 06:00,0.16718,149.5,0.08,-0.14
2001-08-04 07:00,0.22291,123.8,0.19,-0.12
2001-08-04 08:00,0.62180,141.1,0.39,-0.48
2001-08-04 09:00,0.37249,157.2,0.14,-0.34
2001-08-04 10:00,0.23464,169.9,0.04,-0.23
2001-08-04 11:00,0.09972,297.2,-0.09,0.05
2001-08-04 12:00,0.43115,316.9,-0.29,0.31
2001-08-04 13:00,0.34023,329.9,-0.17,0.29
2001-08-04 14:00,0.29037,334.1,-0.13,0.26
2001-08-04 15:00,0.23171,340.1,-0.08,0.22
2001-08-04 16:00,0.10266,332.3,-0.05,0.09
2001-08-04 17:00,0.00293,188.9,-0.00,-0.00
2001-08-04 18:00,0.17598,137.2,0.12,-0.13
2001-08-04 19:00,0.19944,116.8,0.18,-0.09
2001-08-04 20:00,0.33436,103.8,0.32,-0.08
2001-08-04 21:00,0.30503,92.9,0.30,-0.02
2001-08-04 22:00,0.33729,112.6,0.31,-0.13
2001-08-04 23:00,0.12905,108.7,0.12,-0.04
2001-08-05 00:00,0.05573,8.5,0.01,0.06
2001-08-05 01:00,0.20238,334.5,-0.09,0.18
2001-08-05 02:00,0.23171,7.5,0.03,0.23
2001-08-05 03:00,0.13785,336.2,-0.06,0.13
2001-08-05 04:00,0.15838,313.7,-0.11,0.11
2001-08-05 05:00,0.05573,214.2,-0.03,-0.05
2001-08-05 06:00,0.04693,147.8,0.03,-0.04
2001-08-05 07:00,0.20238,122.1,0.17,-0.11
2001-08-05 08:00,0.15838,128.1,0.12,-0.10
2001-08-05 09:00,0.24051,105.6,0.23,-0.06
2001-08-05 10:00,0.19358,91.9,0.19,-0.01
2001-08-05 11:00,0.11145,60.6,0.10,0.05
2001-08-05 12:00,0.24637,36.3,0.15,0.20
2001-08-05 13:00,0.37836,43.3,0.26,0.28
2001-08-05 14:00,0.37542,23.3,0.15,0.34
2001-08-05 15:00,0.20824,45.4,0.15,0.15
2001-08-05 16:00,0.15545,293.7,-0.14,0.06
2001-08-05 17:00,0.23171,291.6,-0.22,0.09
2001-08-05 18:00,0.13492,65.5,0.12,0.06
2001-08-05 19:00,0.17598,164.3,0.05,-0.17
2001-08-05 20:00,0.21411,141.4,0.13,-0.17
2001-08-05 21:00,0.29623,60.6,0.26,0.15
2001-08-05 22:00,0.22291,104.9,0.22,-0.06
2001-08-05 23:00,0.21118,97.8,0.21,-0.03
2001-08-06 00:00,0.30796,59.9,0.27,0.15
2001-08-06 01:00,0.25224,42.3,0.17,0.19
2001-08-06 02:00,0.31383,37.4,0.19,0.25
2001-08-06 03:00,0.13785,6.4,0.02,0.14
2001-08-06 04:00,0.22877,26.8,0.10,0.20
2001-08-06 05:00,0.06159,96.8,0.06,-0.01
2001-08-06 06:00,0.15838,103.1,0.15,-0.04
2001-08-06 07:00,0.35489,148.5,0.19,-0.30
2001-08-06 08:00,0.49568,148.1,0.26,-0.42
2001-08-06 09:00,0.38422,173.4,0.04,-0.38
2001-08-06 10:00,0.15252,161.8,0.05,-0.14